| time (UTC) | temp C | wind direction | speed KPH | gust KPH | rain 1hr cm | rain 24hr cm | rain mn cm | humidity % | barometer mb |
| 20260902194546 | 23 | 161 | 3.2 | 11.3 | 0.00 | 0.00 | 0.00 | 56 | 1016.6 |
| 20260902193042 | 23 | 0 | 1.6 | 11.3 | 0.00 | 0.00 | 0.00 | 58 | 1016.8 |
| 20260902191543 | 23 | 0 | 3.2 | 11.3 | 0.00 | 0.00 | 0.00 | 57 | 1017.0 |
| 20260902190050 | 23 | 158 | 3.2 | 12.9 | 0.00 | 0.00 | 0.00 | 58 | 1017.1 |
| 20260902184541 | 23 | 0 | 1.6 | 11.3 | 0.00 | 0.00 | 0.00 | 56 | 1017.1 |
| 20260902183053 | 23 | 153 | 3.2 | 11.3 | 0.00 | 0.00 | 0.00 | 55 | 1017.1 |
| 20260902181540 | 23 | 147 | 1.6 | 8.0 | 0.00 | 0.00 | 0.00 | 56 | 1017.1 |
| 20260902180055 | 24 | 147 | 3.2 | 9.7 | 0.00 | 0.00 | 0.00 | 56 | 1017.1 |
| 20260902174544 | 23 | 144 | 1.6 | 8.0 | 0.00 | 0.00 | 0.00 | 57 | 1017.1 |
| 20260902173048 | 23 | 144 | 1.6 | 8.0 | 0.00 | 0.00 | 0.00 | 59 | 1017.2 |
| 20260902171556 | 21 | 142 | 1.6 | 12.9 | 0.00 | 0.00 | 0.00 | 64 | 1017.0 |
| 20260902170042 | 21 | 0 | 0.0 | 6.4 | 0.00 | 0.00 | 0.00 | 64 | 1016.8 |
| 20260902164557 | 19 | 128 | 1.6 | 11.3 | 0.00 | 0.00 | 0.00 | 68 | 1016.7 |
| 20260902163046 | 20 | 132 | 1.6 | 8.0 | 0.00 | 0.00 | 0.00 | 67 | 1016.6 |
| 20260902161553 | 19 | 0 | 1.6 | 6.4 | 0.00 | 0.00 | 0.00 | 68 | 1016.8 |
| 20260902160049 | 18 | 0 | 1.6 | 8.0 | 0.00 | 0.00 | 0.00 | 70 | 1016.9 |
| 20260902154603 | 17 | 135 | 1.6 | 6.4 | 0.00 | 0.00 | 0.00 | 73 | 1017.0 |
| 20260902153046 | 16 | 0 | 0.0 | 0.0 | 0.00 | 0.00 | 0.00 | 76 | 1017.0 |
| 20260902151541 | 15 | 0 | 0.0 | 0.0 | 0.00 | 0.00 | 0.00 | 78 | 1016.9 |
| 20260902150048 | 15 | 0 | 0.0 | 0.0 | 0.00 | 0.00 | 0.00 | 79 | 1016.8 |
| 20260902144548 | 15 | 0 | 0.0 | 0.0 | 0.00 | 0.00 | 0.00 | 80 | 1016.7 |
| 20260902143041 | 14 | 0 | 0.0 | 0.0 | 0.00 | 0.00 | 0.00 | 81 | 1016.4 |
| 20260902141541 | 13 | 0 | 0.0 | 0.0 | 0.00 | 0.00 | 0.00 | 82 | 1016.5 |
| 20260902140042 | 13 | 0 | 0.0 | 0.0 | 0.00 | 0.00 | 0.00 | 83 | 1016.5 |
| 20260902134543 | 13 | 0 | 0.0 | 0.0 | 0.00 | 0.00 | 0.00 | 83 | 1016.3 |
| 20260902133058 | 13 | 0 | 0.0 | 0.0 | 0.00 | 0.00 | 0.00 | 83 | 1016.0 |
| 20260902131548 | 13 | 0 | 0.0 | 0.0 | 0.00 | 0.00 | 0.00 | 82 | 1015.9 |
| 20260902130042 | 13 | 0 | 0.0 | 0.0 | 0.00 | 0.00 | 0.00 | 82 | 1015.8 |
| 20260902124541 | 14 | 0 | 0.0 | 0.0 | 0.00 | 0.00 | 0.00 | 82 | 1015.8 |
| 20260902123040 | 14 | 0 | 0.0 | 0.0 | 0.00 | 0.00 | 0.00 | 82 | 1015.9 |
| 20260902121545 | 15 | 0 | 0.0 | 1.6 | 0.00 | 0.00 | 0.00 | 82 | 1015.8 |
| 20260902120041 | 15 | 0 | 0.0 | 0.0 | 0.00 | 0.00 | 0.00 | 82 | 1015.8 |
| 20260902114546 | 15 | 0 | 0.0 | 0.0 | 0.00 | 0.00 | 0.00 | 82 | 1015.8 |
| 20260902113045 | 15 | 135 | 0.0 | 4.8 | 0.00 | 0.00 | 0.00 | 82 | 1015.8 |
| 20260902111541 | 15 | 135 | 1.6 | 6.4 | 0.00 | 0.00 | 0.00 | 81 | 1015.8 |
| 20260902110048 | 15 | 0 | 1.6 | 4.8 | 0.00 | 0.00 | 0.00 | 81 | 1015.8 |
| 20260902104548 | 15 | 0 | 0.0 | 4.8 | 0.00 | 0.00 | 0.00 | 80 | 1015.9 |
| 20260902103046 | 15 | 136 | 0.0 | 4.8 | 0.00 | 0.00 | 0.00 | 80 | 1016.0 |
| 20260902101545 | 15 | 136 | 1.6 | 4.8 | 0.00 | 0.00 | 0.00 | 80 | 1016.1 |
| 20260902100049 | 15 | 136 | 1.6 | 4.8 | 0.00 | 0.00 | 0.00 | 80 | 1016.1 |
| 20260902094544 | 15 | 0 | 0.0 | 0.0 | 0.00 | 0.00 | 0.00 | 80 | 1016.1 |
| 20260902093107 | 15 | 0 | 0.0 | 3.2 | 0.00 | 0.00 | 0.00 | 80 | 1016.2 |
| 20260902091553 | 15 | 0 | 0.0 | 3.2 | 0.00 | 0.00 | 0.00 | 80 | 1016.2 |
| 20260902090049 | 15 | 0 | 1.6 | 4.8 | 0.00 | 0.00 | 0.00 | 80 | 1016.1 |
| 20260902084552 | 15 | 136 | 1.6 | 4.8 | 0.00 | 0.00 | 0.00 | 80 | 1016.1 |
| 20260902083052 | 15 | 136 | 1.6 | 4.8 | 0.00 | 0.00 | 0.00 | 79 | 1016.1 |
| 20260902081602 | 15 | 0 | 1.6 | 6.4 | 0.00 | 0.00 | 0.00 | 79 | 1016.1 |
| 20260902080044 | 15 | 136 | 0.0 | 4.8 | 0.00 | 0.00 | 0.00 | 78 | 1016.0 |
| 20260902074553 | 15 | 0 | 1.6 | 4.8 | 0.00 | 0.00 | 0.00 | 78 | 1015.8 |
| 20260902073044 | 15 | 136 | 1.6 | 6.4 | 0.00 | 0.00 | 0.00 | 78 | 1015.7 |
| 20260902071549 | 15 | 136 | 1.6 | 8.0 | 0.00 | 0.00 | 0.00 | 77 | 1015.7 |
| 20260902070041 | 16 | 139 | 1.6 | 6.4 | 0.00 | 0.00 | 0.00 | 76 | 1015.8 |
| 20260902064541 | 16 | 138 | 0.0 | 8.0 | 0.00 | 0.00 | 0.00 | 76 | 1015.7 |
| 20260902063046 | 16 | 155 | 1.6 | 8.0 | 0.00 | 0.00 | 0.00 | 74 | 1016.0 |
| 20260902061549 | 16 | 0 | 1.6 | 8.0 | 0.00 | 0.00 | 0.00 | 73 | 1016.1 |
| 20260902060054 | 16 | 156 | 1.6 | 8.0 | 0.00 | 0.00 | 0.00 | 72 | 1016.0 |
| 20260902054545 | 16 | 0 | 0.0 | 9.7 | 0.00 | 0.00 | 0.00 | 71 | 1016.0 |
| 20260902053042 | 16 | 158 | 1.6 | 8.0 | 0.00 | 0.00 | 0.00 | 70 | 1016.0 |
| 20260902051542 | 16 | 172 | 1.6 | 8.0 | 0.00 | 0.00 | 0.00 | 69 | 1015.9 |
| 20260902050104 | 17 | 173 | 1.6 | 4.8 | 0.00 | 0.00 | 0.00 | 68 | 1015.9 |
| 20260902044604 | 17 | 0 | 0.0 | 3.2 | 0.00 | 0.00 | 0.00 | 66 | 1015.8 |
| 20260902043041 | 17 | 0 | 0.0 | 6.4 | 0.00 | 0.00 | 0.00 | 65 | 1015.5 |
| 20260902041541 | 18 | 173 | 3.2 | 11.3 | 0.00 | 0.00 | 0.00 | 64 | 1015.4 |
| 20260902040051 | 18 | 0 | 1.6 | 9.7 | 0.00 | 0.00 | 0.00 | 62 | 1015.0 |
| 20260902034554 | 18 | 187 | 1.6 | 9.7 | 0.00 | 0.00 | 0.00 | 60 | 1014.7 |
| 20260902033041 | 19 | 185 | 4.8 | 14.5 | 0.00 | 0.00 | 0.00 | 58 | 1014.5 |
| 20260902031549 | 19 | 192 | 4.8 | 12.9 | 0.00 | 0.00 | 0.00 | 56 | 1014.2 |
| 20260902030044 | 20 | 209 | 1.6 | 9.7 | 0.00 | 0.00 | 0.00 | 54 | 1014.0 |
| 20260902024549 | 20 | 203 | 4.8 | 19.3 | 0.00 | 0.00 | 0.00 | 53 | 1013.8 |
| 20260902023043 | 20 | 217 | 1.6 | 11.3 | 0.00 | 0.00 | 0.00 | 52 | 1013.7 |
| 20260902021552 | 21 | 171 | 3.2 | 14.5 | 0.00 | 0.00 | 0.00 | 51 | 1013.5 |
| 20260902020040 | 22 | 201 | 3.2 | 14.5 | 0.00 | 0.00 | 0.00 | 49 | 1013.5 |
| 20260902014542 | 23 | 186 | 4.8 | 16.1 | 0.00 | 0.00 | 0.00 | 46 | 1013.3 |
| 20260902013047 | 23 | 203 | 4.8 | 16.1 | 0.00 | 0.00 | 0.00 | 43 | 1013.3 |
| 20260902011543 | 24 | 178 | 0.0 | 17.7 | 0.00 | 0.00 | 0.00 | 43 | 1013.2 |
| 20260902010044 | 24 | 213 | 1.6 | 12.9 | 0.00 | 0.00 | 0.00 | 42 | 1013.3 |
| 20260902004549 | 24 | 225 | 1.6 | 14.5 | 0.00 | 0.00 | 0.00 | 42 | 1013.2 |
| 20260902003045 | 25 | 196 | 4.8 | 14.5 | 0.00 | 0.00 | 0.00 | 41 | 1013.4 |
| 20260902001541 | 25 | 177 | 4.8 | 12.9 | 0.00 | 0.00 | 0.00 | 39 | 1013.4 |
| 20260902000047 | 25 | 186 | 3.2 | 14.5 | 0.00 | 0.00 | 0.00 | 39 | 1013.5 |
| 20260901234548 | 25 | 185 | 3.2 | 19.3 | 0.00 | 0.00 | 0.00 | 39 | 1013.5 |
| 20260901233042 | 25 | 177 | 6.4 | 17.7 | 0.00 | 0.00 | 0.00 | 41 | 1013.5 |
| 20260901231548 | 25 | 168 | 1.6 | 11.3 | 0.00 | 0.00 | 0.00 | 41 | 1013.7 |
| 20260901230051 | 25 | 0 | 1.6 | 17.7 | 0.00 | 0.00 | 0.00 | 42 | 1013.9 |
| 20260901224542 | 25 | 174 | 8.0 | 16.1 | 0.00 | 0.00 | 0.00 | 42 | 1014.0 |
| 20260901223050 | 25 | 194 | 4.8 | 14.5 | 0.00 | 0.00 | 0.00 | 43 | 1014.0 |
| 20260901221547 | 26 | 203 | 4.8 | 14.5 | 0.00 | 0.00 | 0.00 | 42 | 1014.2 |
| 20260901220041 | 25 | 284 | 4.8 | 19.3 | 0.00 | 0.00 | 0.00 | 43 | 1014.2 |
| 20260901214542 | 25 | 0 | 1.6 | 12.9 | 0.00 | 0.00 | 0.00 | 44 | 1014.3 |
| 20260901213109 | 24 | 189 | 6.4 | 16.1 | 0.00 | 0.00 | 0.00 | 47 | 1014.4 |
| 20260901211543 | 24 | 0 | 0.0 | 17.7 | 0.00 | 0.00 | 0.00 | 46 | 1014.4 |
| 20260901210042 | 25 | 0 | 0.0 | 11.3 | 0.00 | 0.00 | 0.00 | 45 | 1014.6 |
| 20260901204548 | 24 | 222 | 4.8 | 12.9 | 0.00 | 0.00 | 0.00 | 47 | 1014.7 |
| 20260901203043 | 23 | 0 | 3.2 | 11.3 | 0.00 | 0.00 | 0.00 | 48 | 1015.0 |
| 20260901201541 | 23 | 182 | 4.8 | 14.5 | 0.00 | 0.00 | 0.00 | 49 | 1015.1 |
| 20260901200048 | 23 | 186 | 3.2 | 14.5 | 0.00 | 0.00 | 0.00 | 51 | 1015.0 |